Regional Weather Roundup
Issued by NWS Cleveland, OH

Home | Current Version | Previous Version | Text Only | Print | Product List | Glossary Off
Versions: 1 2 3 4 5 6 7 8 9 10 11 12 13 14 15 16 17 18 19 20 21 22 23 24 25 26 27 28 29 30 31 32 33 34 35 36 37 38 39 40 41 42 43 44 45 46 47 48 49 50

000
ASUS41 KCLE 231610
RWRCLE
OHIO REGIONAL WEATHER ROUNDUP
NATIONAL WEATHER SERVICE WILMINGTON, OH
1200 PM EDT WED APR 23 2014

NOTE: "FAIR" INDICATES FEW OR NO CLOUDS BELOW 12,000 FEET WITH NO
SIGNIFICANT WEATHER AND/OR OBSTRUCTIONS TO VISIBILITY.

OHZ001>008-015>018-024>027-034-035-043-044-231700-
   NORTHWEST OHIO

CITY           SKY/WX    TMP DP  RH WIND       PRES   REMARKS
DEFIANCE       SUNNY     48  30  49 N8        30.12R
FINDLAY        MOSUNNY   47  31  53 N6        30.10S
TOLEDO EXPRESS MOSUNNY   46  30  53 N14       30.10F
TOLEDO METCALF MOSUNNY   47  31  53 N9        30.11S
LIMA           MOSUNNY   46  33  60 VRB6      30.10S
$$

OHZ009>014-019>023-028>033-038-089-231700-
   NORTHEAST OHIO

CITY           SKY/WX    TMP DP  RH WIND       PRES   REMARKS
CLE-HOPKINS    CLOUDY    42  30  62 N14       30.11R
CLE-LAKEFRONT  CLOUDY    40  32  73 NW13      30.07R
CUY CO. ARPT   CLOUDY    39  32  75 NW16      30.07R
LORAIN-ELYRIA  CLOUDY    43  32  65 N12       30.09R
ASHTABULA      CLOUDY    39  29  67 NW14G22   30.03R
AKRON-CANTON   CLOUDY    42  30  62 NW16      30.05R
WOOSTER        CLOUDY    40  32  73 N13       30.08R
MANSFIELD      CLOUDY    42  31  64 NW14      30.08R
YOUNGSTOWN     CLOUDY    38  30  73 NW12      30.02R
$$

OHZ042-051>053-060>062-070>072-077>081-231700-
  SOUTHWEST OHIO

CITY           SKY/WX    TMP DP  RH WIND       PRES   REMARKS
CINC-COVINGTON SUNNY     51  30  44 N5        30.11R
CINC-LUNKEN    SUNNY     51  32  48 VRB3      30.12S
HAMILTON       SUNNY     50  33  52 NW6       30.12S
DAYTON         MOSUNNY   49  33  54 N9        30.11S
WRIGHT-PAT AFB SUNNY     47  33  57 NE5       30.10S
DAYTON GENERAL SUNNY     49  33  54 VRB5      30.09S
WILMINGTON     SUNNY     49  31  49 N8        30.09R
$$

OHZ036-037-039>041-045>050-054>059-063>069-073>076-082>088-231700-
  CENTRAL AND SOUTHEAST OHIO

CITY           SKY/WX    TMP DP  RH WIND       PRES   REMARKS
COLUMBUS       MOSUNNY   51  32  48 N14       30.08S
OSU AIRPORT    MOSUNNY   47  32  56 NW12      30.09R
BOLTON FIELD   MOSUNNY   46  34  61 NW10      30.09R
RICKENBACK AFB MOSUNNY   51  30  44 N7G16     30.08S
NEWARK         CLOUDY    47  32  56 VRB7      30.07R
MARION         CLOUDY    42  31  64 N8        30.10R
LANCASTER      MOSUNNY   50  33  52 N13G18    30.08R
ZANESVILLE     CLOUDY    46  32  58 N10       30.06R
NEW PHILLY     CLOUDY    42  31  64 NW13      30.07R
$$



USA.gov is the U.S. government's official web portal to all federal, state and local government web resources and services.